QPF
0.00 0.00 0.00 0.00 0.00 0.00 0.00 0.00 0.00 0.00 0.00 0.00 0.00 0.00 0.00 0.00 0.00 0.00 0.00 0.00 0.00 0.00 0.00 0.00 0.00 0.00 0.00 0.00 0.00 0.00 0.00 0.00 0.00 0.00 0.00 0.00 0.00 0.00 0.00 0.00 0.00 0.00 0.00
0.00 0.00 0.00 0.00 0.00 0.00 0.00 0.00 0.00 0.00 0.00 0.00 0.00 0.00 0.00 0.00 0.00 0.00 0.00 0.00 0.00 0.00 0.00 0.00 0.00 0.00 0.00 0.00 0.00 0.00 0.00 0.00 0.00 0.00 0.00 0.00 0.00 0.00 0.00 0.00 0.00 0.00 0.00
0.00 0.00 0.00 0.00 0.00 0.00 0.00 0.00 0.00 0.00 0.00 0.00 0.00 0.00 0.00 0.00 0.00 0.00 0.00 0.00 0.00 0.00 0.00 0.00 0.00 0.00 0.00 0.00 0.00 0.00 0.00 0.00 0.00 0.00 0.00 0.00 0.00 0.00 0.00 0.00 0.00 0.00 0.00
0.00 0.00 0.00 0.00 0.00 0.00 0.00 0.00 0.00 0.00 0.00 0.00 0.00 0.00 0.00 0.00 0.00 0.00 0.00 0.00 0.00 0.00 0.00 0.00 0.00 0.00 0.00 0.00 0.00 0.00 0.00 0.00 0.00 0.01 0.01 0.00 0.00 0.00 0.00 0.00 0.00 0.00 0.00
0.00 0.00 0.00 0.00 0.00 0.00 0.00 0.00 0.00 0.00 0.00 0.00 0.00 0.00 0.00 0.00 0.00 0.00 0.00 0.00 0.00 0.00 0.00 0.00 0.00 0.00 0.00 0.00 0.00 0.00 0.00 0.01 0.01 0.01 0.01 0.01 0.01 0.01 0.01 0.01 0.01 0.00 0.00
0.00 0.00 0.00 0.00 0.00 0.00 0.00 0.00 0.00 0.00 0.00 0.00 0.00 0.00 0.00 0.00 0.00 0.00 0.00 0.00 0.00 0.00 0.00 0.00 0.00 0.00 0.00 0.00 0.00 0.00 0.01 0.01 0.01 0.01 0.02 0.02 0.01 0.01 0.01 0.01 0.01 0.02 0.01
0.00 0.00 0.00 0.00 0.00 0.00 0.00 0.00 0.00 0.00 0.00 0.00 0.00 0.00 0.00 0.00 0.00 0.00 0.00 0.00 0.00 0.00 0.00 0.00 0.00 0.00 0.00 0.00 0.00 0.00 0.00 0.00 0.01 0.01 0.02 0.01 0.01 0.01 0.01 0.02 0.02 0.03 0.03
0.00 0.00 0.00 0.00 0.00 0.00 0.00 0.00 0.00 0.00 0.00 0.00 0.00 0.00 0.00 0.00 0.00 0.00 0.00 0.00 0.00 0.00 0.00 0.00 0.00 0.00 0.00 0.00 0.00 0.00 0.00 0.00 0.00 0.01 0.01 0.01 0.01 0.01 0.02 0.04 0.05 0.06 0.05
0.00 0.00 0.00 0.00 0.00 0.00 0.00 0.00 0.00 0.00 0.00 0.00 0.00 0.00 0.00 0.00 0.00 0.00 0.00 0.00 0.00 0.00 0.00 0.00 0.00 0.00 0.00 0.00 0.01 0.01 0.01 0.01 0.01 0.01 0.02 0.02 0.03 0.03 0.04 0.06 0.07 0.07 0.05
0.00 0.00 0.00 0.00 0.00 0.00 0.00 0.00 0.00 0.00 0.00 0.00 0.00 0.00 0.00 0.00 0.00 0.00 0.00 0.00 0.00 0.00 0.00 0.00 0.00 0.00 0.00 0.01 0.01 0.02 0.02 0.01 0.01 0.01 0.01 0.01 0.01 0.01 0.02 0.03 0.04 0.05 0.05
0.00 0.00 0.00 0.00 0.00 0.00 0.00 0.00 0.00 0.00 0.00 0.00 0.00 0.00 0.00 0.00 0.00 0.00 0.00 0.00 0.00 0.00 0.00 0.00 0.00 0.01 0.01 0.01 0.02 0.02 0.03 0.03 0.03 0.03 0.03 0.02 0.01 0.01 0.01 0.01 0.01 0.03 0.05
0.00 0.00 0.00 0.00 0.00 0.00 0.00 0.00 0.00 0.00 0.00 0.00 0.00 0.00 0.00 0.00 0.00 0.00 0.00 0.00 0.00 0.00 0.00 0.00 0.00 0.01 0.01 0.02 0.02 0.03 0.03 0.04 0.03 0.03 0.03 0.02 0.02 0.01 0.01 0.01 0.01 0.01 0.02
0.00 0.00 0.00 0.00 0.00 0.00 0.00 0.00 0.00 0.00 0.00 0.00 0.00 0.00 0.00 0.00 0.00 0.00 0.00 0.00 0.00 0.00 0.00 0.01 0.01 0.01 0.01 0.02 0.01 0.02 0.02 0.02 0.02 0.02 0.02 0.01 0.01 0.01 0.01 0.01 0.01 0.01 0.01
0.00 0.00 0.00 0.00 0.00 0.00 0.00 0.00 0.00 0.00 0.00 0.00 0.00 0.00 0.00 0.00 0.00 0.00 0.00 0.00 0.01 0.01 0.01 0.01 0.01 0.01 0.01 0.01 0.01 0.01 0.01 0.01 0.01 0.02 0.02 0.01 0.01 0.01 0.01 0.01 0.01 0.01 0.01
0.00 0.00 0.00 0.00 0.00 0.00 0.00 0.00 0.00 0.00 0.00 0.00 0.00 0.00 0.00 0.00 0.00 0.00 0.01 0.01 0.01 0.02 0.02 0.03 0.03 0.02 0.02 0.01 0.01 0.01 0.01 0.01 0.01 0.01 0.02 0.02 0.01 0.01 0.01 0.01 0.01 0.01 0.02
0.00 0.00 0.00 0.00 0.00 0.00 0.00 0.00 0.00 0.00 0.00 0.00 0.00 0.00 0.00 0.00 0.00 0.00 0.01 0.01 0.01 0.02 0.03 0.04 0.03 0.02 0.02 0.02 0.02 0.02 0.01 0.01 0.01 0.01 0.01 0.01 0.01 0.01 0.01 0.01 0.01 0.02 0.01
0.00 0.00 0.00 0.00 0.00 0.00 0.00 0.00 0.00 0.00 0.00 0.00 0.00 0.00 0.00 0.00 0.00 0.00 0.01 0.01 0.01 0.01 0.02 0.02 0.02 0.02 0.01 0.01 0.01 0.01 0.01 0.01 0.01 0.01 0.01 0.01 0.02 0.02 0.01 0.01 0.01 0.01 0.01
0.00 0.00 0.00 0.00 0.00 0.00 0.00 0.00 0.00 0.00 0.00 0.00 0.00 0.00 0.00 0.00 0.00 0.00 0.01 0.01 0.01 0.01 0.01 0.01 0.01 0.01 0.01 0.01 0.01 0.01 0.01 0.01 0.01 0.01 0.01 0.01 0.02 0.02 0.02 0.01 0.01 0.01 0.01
0.00 0.00 0.00 0.00 0.00 0.00 0.00 0.00 0.00 0.00 0.00 0.00 0.00 0.00 0.00 0.00 0.00 0.00 0.00 0.01 0.01 0.01 0.01 0.01 0.01 0.01 0.01 0.01 0.01 0.01 0.01 0.02 0.02 0.02 0.02 0.01 0.01 0.02 0.02 0.01 0.01 0.01 0.02
0.00 0.00 0.00 0.00 0.00 0.00 0.00 0.00 0.00 0.00 0.00 0.00 0.00 0.00 0.00 0.00 0.00 0.00 0.00 0.01 0.01 0.01 0.01 0.01 0.01 0.01 0.01 0.01 0.02 0.02 0.02 0.02 0.02 0.02 0.01 0.01 0.01 0.02 0.02 0.01 0.01 0.01 0.02
0.00 0.00 0.00 0.00 0.00 0.00 0.00 0.00 0.00 0.00 0.01 0.00 0.00 0.00 0.00 0.01 0.01 0.01 0.01 0.01 0.01 0.01 0.01 0.01 0.01 0.01 0.01 0.01 0.02 0.02 0.02 0.02 0.01 0.01 0.01 0.01 0.01 0.02 0.01 0.01 0.01 0.01 0.01
0.00 0.00 0.00 0.00 0.00 0.00 0.00 0.01 0.01 0.01 0.00 0.00 0.00 0.00 0.00 0.01 0.00 0.00 0.01 0.01 0.01 0.01 0.01 0.01 0.01 0.01 0.01 0.02 0.02 0.02 0.02 0.02 0.01 0.01 0.01 0.01 0.01 0.01 0.01 0.02 0.01 0.01 0.02
0.00 0.00 0.00 0.00 0.00 0.00 0.00 0.00 0.00 0.00 0.00 0.00 0.00 0.00 0.00 0.00 0.01 0.01 0.01 0.01 0.01 0.01 0.01 0.01 0.01 0.02 0.01 0.02 0.02 0.02 0.02 0.01 0.01 0.01 0.02 0.02 0.02 0.01 0.02 0.02 0.01 0.01 0.01
0.00 0.00 0.00 0.00 0.00 0.00 0.00 0.00 0.00 0.00 0.00 0.00 0.00 0.00 0.00 0.00 0.01 0.01 0.01 0.01 0.01 0.01 0.01 0.01 0.01 0.01 0.01 0.01 0.02 0.02 0.02 0.01 0.01 0.02 0.02 0.02 0.02 0.01 0.02 0.02 0.01 0.01 0.01
0.00 0.00 0.00 0.00 0.00 0.00 0.00 0.00 0.00 0.00 0.00 0.00 0.00 0.00 0.00 0.00 0.01 0.01 0.00 0.00 0.00 0.01 0.01 0.01 0.01 0.01 0.01 0.01 0.02 0.02 0.02 0.02 0.02 0.03 0.03 0.03 0.02 0.02 0.02 0.01 0.01 0.01 0.01
0.00 0.00 0.00 0.00 0.00 0.00 0.00 0.00 0.00 0.00 0.00 0.00 0.00 0.00 0.01 0.01 0.01 0.01 0.01 0.01 0.01 0.01 0.01 0.01 0.01 0.01 0.01 0.01 0.01 0.01 0.01 0.02 0.02 0.03 0.05 0.06 0.04 0.02 0.02 0.02 0.01 0.01 0.01
MSLP
1015.95 1016.45 1016.95 1017.44 1017.93 1018.40 1018.86 1019.31 1019.76 1020.19 1020.59 1020.95 1021.26 1021.50 1021.67 1021.77 1021.80 1021.79 1021.75 1021.68 1021.61 1021.55 1021.47 1021.39 1021.29 1021.15 1020.96 1020.73 1020.43 1020.10 1019.72 1019.30 1018.87 1018.43 1017.98 1017.54 1017.11 1016.69 1016.29 1015.91 1015.53 1015.16 1014.79
1015.67 1016.22 1016.76 1017.29 1017.79 1018.27 1018.74 1019.19 1019.62 1020.03 1020.41 1020.76 1021.04 1021.27 1021.42 1021.51 1021.53 1021.50 1021.43 1021.34 1021.23 1021.11 1020.99 1020.87 1020.73 1020.58 1020.40 1020.19 1019.95 1019.67 1019.35 1019.01 1018.63 1018.23 1017.81 1017.36 1016.91 1016.45 1015.98 1015.52 1015.06 1014.60 1014.15
1015.30 1015.91 1016.50 1017.06 1017.60 1018.10 1018.57 1019.02 1019.44 1019.84 1020.20 1020.52 1020.78 1020.98 1021.12 1021.19 1021.19 1021.13 1021.03 1020.89 1020.74 1020.57 1020.40 1020.23 1020.06 1019.89 1019.71 1019.52 1019.33 1019.11 1018.86 1018.59 1018.28 1017.93 1017.54 1017.11 1016.64 1016.14 1015.62 1015.09 1014.55 1014.02 1013.48
1014.85 1015.51 1016.16 1016.77 1017.33 1017.86 1018.34 1018.79 1019.21 1019.58 1019.92 1020.21 1020.45 1020.63 1020.74 1020.78 1020.76 1020.67 1020.53 1020.36 1020.15 1019.93 1019.71 1019.50 1019.30 1019.11 1018.93 1018.77 1018.61 1018.45 1018.27 1018.06 1017.82 1017.52 1017.17 1016.75 1016.28 1015.76 1015.20 1014.62 1014.02 1013.42 1012.82
1014.35 1015.07 1015.75 1016.40 1017.00 1017.55 1018.04 1018.49 1018.89 1019.25 1019.57 1019.83 1020.04 1020.18 1020.26 1020.28 1020.22 1020.11 1019.94 1019.73 1019.49 1019.23 1018.97 1018.72 1018.49 1018.29 1018.11 1017.97 1017.83 1017.71 1017.58 1017.43 1017.23 1016.98 1016.66 1016.27 1015.81 1015.29 1014.71 1014.10 1013.47 1012.82 1012.18
1013.85 1014.60 1015.32 1016.00 1016.62 1017.17 1017.68 1018.12 1018.51 1018.84 1019.13 1019.36 1019.53 1019.65 1019.69 1019.68 1019.60 1019.46 1019.27 1019.03 1018.77 1018.48 1018.20 1017.93 1017.68 1017.46 1017.28 1017.14 1017.02 1016.92 1016.81 1016.69 1016.52 1016.30 1016.02 1015.65 1015.21 1014.70 1014.14 1013.53 1012.89 1012.25 1011.59
1013.41 1014.17 1014.90 1015.58 1016.21 1016.77 1017.26 1017.69 1018.06 1018.37 1018.62 1018.81 1018.95 1019.03 1019.04 1019.00 1018.90 1018.74 1018.53 1018.28 1018.00 1017.71 1017.42 1017.13 1016.87 1016.65 1016.45 1016.30 1016.18 1016.07 1015.97 1015.85 1015.70 1015.50 1015.23 1014.90 1014.49 1014.02 1013.49 1012.91 1012.31 1011.68 1011.05
1013.07 1013.81 1014.52 1015.20 1015.81 1016.35 1016.83 1017.24 1017.58 1017.85 1018.07 1018.22 1018.32 1018.36 1018.34 1018.27 1018.14 1017.97 1017.75 1017.50 1017.22 1016.93 1016.63 1016.34 1016.08 1015.84 1015.63 1015.45 1015.31 1015.18 1015.06 1014.93 1014.77 1014.57 1014.33 1014.02 1013.66 1013.24 1012.76 1012.25 1011.70 1011.13 1010.54
1012.85 1013.55 1014.23 1014.87 1015.45 1015.97 1016.42 1016.79 1017.10 1017.33 1017.51 1017.62 1017.67 1017.67 1017.62 1017.51 1017.37 1017.18 1016.95 1016.70 1016.42 1016.13 1015.84 1015.56 1015.28 1015.03 1014.80 1014.59 1014.41 1014.25 1014.10 1013.94 1013.77 1013.57 1013.34 1013.07 1012.76 1012.40 1012.00 1011.56 1011.09 1010.59 1010.06
1012.77 1013.41 1014.04 1014.63 1015.17 1015.64 1016.05 1016.38 1016.64 1016.83 1016.96 1017.03 1017.03 1016.99 1016.90 1016.77 1016.59 1016.39 1016.16 1015.90 1015.63 1015.34 1015.05 1014.76 1014.48 1014.21 1013.95 1013.72 1013.50 1013.30 1013.11 1012.93 1012.74 1012.54 1012.33 1012.10 1011.84 1011.56 1011.24 1010.88 1010.49 1010.06 1009.60
1012.80 1013.38 1013.94 1014.47 1014.95 1015.37 1015.72 1016.00 1016.21 1016.36 1016.43 1016.45 1016.41 1016.33 1016.20 1016.03 1015.83 1015.61 1015.36 1015.10 1014.82 1014.53 1014.24 1013.94 1013.65 1013.37 1013.09 1012.82 1012.58 1012.34 1012.13 1011.93 1011.73 1011.55 1011.36 1011.17 1010.97 1010.75 1010.51 1010.23 1009.92 1009.56 1009.15
1012.93 1013.44 1013.93 1014.38 1014.79 1015.14 1015.43 1015.65 1015.80 1015.89 1015.92 1015.88 1015.80 1015.67 1015.50 1015.30 1015.08 1014.83 1014.56 1014.29 1014.00 1013.70 1013.40 1013.10 1012.80 1012.50 1012.21 1011.92 1011.66 1011.41 1011.18 1010.98 1010.79 1010.63 1010.48 1010.33 1010.19 1010.03 1009.85 1009.64 1009.38 1009.07 1008.70
1013.12 1013.55 1013.96 1014.33 1014.66 1014.94 1015.15 1015.30 1015.38 1015.41 1015.38 1015.29 1015.16 1014.99 1014.79 1014.56 1014.30 1014.03 1013.75 1013.45 1013.15 1012.85 1012.54 1012.23 1011.92 1011.61 1011.31 1011.03 1010.76 1010.51 1010.29 1010.10 1009.94 1009.81 1009.70 1009.61 1009.52 1009.41 1009.29 1009.12 1008.90 1008.61 1008.27
1013.33 1013.68 1014.01 1014.29 1014.53 1014.72 1014.84 1014.91 1014.92 1014.88 1014.79 1014.65 1014.47 1014.26 1014.03 1013.77 1013.49 1013.20 1012.89 1012.59 1012.27 1011.96 1011.64 1011.33 1011.01 1010.71 1010.42 1010.14 1009.89 1009.66 1009.47 1009.32 1009.20 1009.11 1009.05 1009.00 1008.95 1008.89 1008.79 1008.65 1008.45 1008.17 1007.82
1013.52 1013.79 1014.03 1014.22 1014.36 1014.45 1014.48 1014.46 1014.39 1014.27 1014.12 1013.93 1013.71 1013.47 1013.20 1012.92 1012.62 1012.32 1012.01 1011.69 1011.37 1011.04 1010.73 1010.41 1010.10 1009.81 1009.54 1009.28 1009.06 1008.87 1008.72 1008.61 1008.53 1008.49 1008.48 1008.48 1008.47 1008.43 1008.35 1008.22 1008.01 1007.73 1007.37
1013.65 1013.85 1013.99 1014.08 1014.12 1014.11 1014.04 1013.93 1013.77 1013.58 1013.37 1013.13 1012.87 1012.60 1012.32 1012.02 1011.72 1011.40 1011.09 1010.76 1010.44 1010.12 1009.81 1009.51 1009.21 1008.94 1008.69 1008.47 1008.28 1008.13 1008.02 1007.96 1007.93 1007.93 1007.96 1007.99 1008.01 1007.99 1007.93 1007.79 1007.57 1007.27 1006.89
1013.72 1013.83 1013.88 1013.88 1013.82 1013.70 1013.54 1013.33 1013.10 1012.84 1012.56 1012.28 1011.99 1011.69 1011.40 1011.09 1010.79 1010.48 1010.17 1009.85 1009.54 1009.23 1008.93 1008.64 1008.36 1008.11 1007.89 1007.69 1007.54 1007.43 1007.36 1007.34 1007.35 1007.39 1007.45 1007.51 1007.55 1007.54 1007.48 1007.34 1007.11 1006.80 1006.40
1013.69 1013.73 1013.70 1013.60 1013.45 1013.24 1012.99 1012.70 1012.40 1012.07 1011.75 1011.43 1011.11 1010.80 1010.49 1010.19 1009.89 1009.58 1009.28 1008.98 1008.68 1008.39 1008.10 1007.83 1007.58 1007.35 1007.14 1006.98 1006.85 1006.77 1006.73 1006.73 1006.77 1006.84 1006.92 1006.99 1007.04 1007.05 1006.99 1006.85 1006.63 1006.32 1005.92
1013.58 1013.54 1013.44 1013.27 1013.04 1012.76 1012.44 1012.08 1011.71 1011.34 1010.97 1010.62 1010.28 1009.95 1009.64 1009.34 1009.05 1008.76 1008.47 1008.19 1007.90 1007.63 1007.36 1007.11 1006.87 1006.66 1006.48 1006.33 1006.22 1006.15 1006.13 1006.14 1006.19 1006.27 1006.36 1006.44 1006.50 1006.52 1006.47 1006.35 1006.14 1005.85 1005.47
1013.39 1013.29 1013.13 1012.90 1012.62 1012.28 1011.90 1011.50 1011.09 1010.68 1010.28 1009.90 1009.54 1009.21 1008.89 1008.59 1008.30 1008.02 1007.75 1007.48 1007.21 1006.95 1006.70 1006.46 1006.25 1006.05 1005.88 1005.74 1005.64 1005.57 1005.55 1005.56 1005.61 1005.69 1005.78 1005.87 1005.94 1005.97 1005.94 1005.85 1005.67 1005.41 1005.07
1013.11 1012.97 1012.77 1012.51 1012.18 1011.81 1011.40 1010.97 1010.53 1010.10 1009.68 1009.28 1008.91 1008.57 1008.24 1007.94 1007.65 1007.38 1007.11 1006.85 1006.60 1006.35 1006.11 1005.89 1005.69 1005.50 1005.34 1005.21 1005.10 1005.04 1005.01 1005.01 1005.05 1005.12 1005.20 1005.29 1005.37 1005.42 1005.42 1005.36 1005.23 1005.03 1004.75
1012.78 1012.60 1012.37 1012.09 1011.74 1011.35 1010.93 1010.49 1010.04 1009.59 1009.16 1008.75 1008.37 1008.01 1007.67 1007.36 1007.07 1006.79 1006.52 1006.27 1006.02 1005.79 1005.57 1005.36 1005.17 1004.99 1004.84 1004.71 1004.61 1004.53 1004.49 1004.49 1004.51 1004.57 1004.65 1004.74 1004.83 1004.90 1004.93 1004.92 1004.84 1004.70 1004.49
1012.39 1012.19 1011.94 1011.64 1011.28 1010.89 1010.47 1010.02 1009.56 1009.11 1008.67 1008.25 1007.85 1007.48 1007.13 1006.81 1006.50 1006.21 1005.94 1005.69 1005.45 1005.22 1005.01 1004.82 1004.64 1004.48 1004.34 1004.22 1004.12 1004.05 1004.00 1003.98 1004.00 1004.04 1004.12 1004.21 1004.31 1004.40 1004.47 1004.50 1004.48 1004.41 1004.26
1011.95 1011.72 1011.46 1011.14 1010.78 1010.39 1009.96 1009.52 1009.06 1008.60 1008.16 1007.72 1007.31 1006.92 1006.56 1006.21 1005.89 1005.59 1005.31 1005.06 1004.82 1004.60 1004.41 1004.23 1004.07 1003.93 1003.81 1003.70 1003.61 1003.55 1003.50 1003.48 1003.49 1003.53 1003.60 1003.69 1003.80 1003.91 1004.01 1004.08 1004.12 1004.10 1004.03
1011.46 1011.21 1010.92 1010.59 1010.22 1009.81 1009.38 1008.93 1008.47 1008.01 1007.56 1007.12 1006.69 1006.29 1005.90 1005.54 1005.20 1004.89 1004.60 1004.34 1004.11 1003.90 1003.72 1003.56 1003.42 1003.31 1003.21 1003.12 1003.05 1003.00 1002.96 1002.94 1002.95 1002.98 1003.05 1003.14 1003.26 1003.38 1003.51 1003.62 1003.71 1003.75 1003.74
1010.92 1010.63 1010.31 1009.95 1009.57 1009.15 1008.71 1008.25 1007.78 1007.31 1006.85 1006.40 1005.96 1005.54 1005.14 1004.76 1004.41 1004.09 1003.79 1003.53 1003.30 1003.10 1002.93 1002.80 1002.69 1002.59 1002.52 1002.46 1002.41 1002.37 1002.34 1002.33 1002.34 1002.38 1002.44 1002.53 1002.66 1002.80 1002.95 1003.09 1003.22 1003.31 1003.36
Thickness
5606 5601 5595 5590 5584 5579 5573 5567 5561 5554 5547 5541 5535 5529 5523 5518 5513 5508 5504 5499 5495 5491 5487 5482 5479 5474 5470 5466 5462 5458 5455 5452 5453 5459 5454 5451 5446 5443 5441 5438 5437 5436 5436
5600 5594 5589 5583 5577 5571 5566 5560 5553 5547 5540 5534 5527 5521 5516 5510 5505 5500 5496 5491 5486 5483 5479 5474 5470 5465 5461 5457 5453 5449 5445 5442 5440 5443 5442 5437 5433 5429 5426 5424 5422 5421 5420
5593 5588 5582 5576 5570 5565 5559 5552 5545 5538 5532 5525 5519 5514 5508 5502 5497 5492 5487 5483 5478 5474 5470 5465 5461 5456 5452 5448 5443 5439 5435 5431 5427 5426 5427 5423 5419 5414 5411 5410 5407 5405 5404
5588 5582 5577 5571 5565 5559 5552 5544 5537 5530 5524 5518 5512 5506 5500 5494 5488 5483 5478 5473 5469 5465 5460 5455 5451 5446 5442 5437 5432 5428 5423 5419 5415 5412 5412 5409 5404 5399 5394 5393 5393 5390 5387
5582 5577 5572 5565 5557 5550 5543 5536 5528 5522 5516 5510 5503 5498 5492 5486 5480 5474 5468 5464 5460 5456 5452 5447 5442 5436 5431 5425 5420 5416 5410 5405 5401 5398 5397 5394 5390 5384 5379 5376 5374 5373 5371
5577 5571 5564 5556 5549 5542 5535 5528 5520 5514 5508 5501 5496 5490 5484 5478 5472 5465 5459 5456 5452 5449 5444 5440 5434 5428 5422 5415 5409 5403 5397 5392 5387 5383 5381 5378 5375 5368 5363 5358 5354 5353 5354
5570 5564 5556 5548 5541 5534 5526 5519 5513 5507 5501 5494 5488 5482 5477 5471 5463 5456 5450 5446 5444 5440 5436 5431 5425 5419 5411 5405 5399 5393 5386 5379 5372 5367 5366 5363 5358 5352 5345 5341 5336 5333 5333
5562 5555 5548 5540 5533 5526 5519 5513 5506 5500 5493 5487 5480 5474 5468 5462 5454 5447 5441 5437 5435 5431 5426 5420 5414 5408 5400 5392 5386 5380 5375 5369 5361 5354 5350 5347 5340 5333 5326 5321 5318 5316 5316
5553 5547 5540 5532 5525 5518 5512 5505 5499 5491 5485 5478 5472 5465 5459 5454 5445 5437 5430 5427 5425 5421 5415 5408 5401 5395 5388 5379 5372 5368 5364 5358 5350 5343 5336 5330 5324 5317 5309 5304 5301 5298 5301
5545 5539 5531 5524 5517 5510 5504 5497 5489 5482 5475 5468 5462 5456 5450 5445 5437 5427 5419 5415 5414 5411 5405 5398 5390 5382 5374 5365 5357 5353 5349 5345 5337 5332 5325 5318 5311 5305 5298 5291 5286 5284 5285
5535 5528 5521 5514 5508 5501 5494 5486 5479 5472 5465 5459 5453 5447 5441 5434 5427 5418 5409 5403 5399 5396 5392 5387 5379 5370 5361 5352 5344 5339 5334 5328 5323 5317 5311 5305 5299 5293 5287 5281 5276 5272 5272
5523 5516 5510 5503 5497 5489 5483 5476 5468 5461 5455 5449 5443 5438 5431 5424 5416 5409 5400 5391 5385 5381 5379 5373 5366 5357 5349 5341 5333 5327 5320 5312 5306 5301 5297 5292 5287 5283 5278 5273 5269 5265 5263
5511 5505 5499 5492 5485 5478 5472 5465 5458 5451 5444 5439 5432 5427 5422 5414 5406 5397 5389 5382 5374 5367 5364 5359 5352 5344 5336 5330 5323 5315 5306 5298 5292 5287 5284 5281 5277 5272 5268 5265 5262 5259 5258
5501 5495 5488 5481 5475 5468 5460 5454 5447 5441 5434 5427 5420 5415 5410 5403 5394 5386 5378 5371 5363 5356 5350 5346 5339 5332 5324 5316 5310 5302 5293 5286 5280 5275 5272 5269 5266 5262 5259 5257 5255 5254 5253
5489 5482 5475 5469 5463 5457 5450 5443 5437 5431 5422 5414 5408 5401 5395 5391 5384 5372 5363 5358 5350 5343 5336 5331 5326 5319 5313 5306 5298 5291 5283 5276 5270 5266 5261 5259 5256 5254 5252 5250 5248 5248 5248
5476 5470 5463 5457 5451 5444 5439 5433 5425 5417 5409 5401 5393 5386 5382 5375 5368 5359 5351 5344 5337 5329 5321 5318 5314 5307 5301 5294 5287 5281 5274 5268 5262 5257 5253 5250 5248 5247 5246 5244 5243 5243 5244
5463 5457 5450 5444 5438 5432 5426 5421 5416 5409 5399 5391 5383 5375 5368 5362 5354 5346 5339 5332 5325 5316 5309 5305 5300 5294 5288 5282 5276 5270 5265 5259 5253 5249 5245 5243 5242 5241 5240 5239 5239 5239 5240
5449 5443 5437 5431 5425 5419 5413 5407 5401 5395 5390 5384 5374 5365 5356 5349 5341 5333 5325 5317 5313 5306 5299 5293 5288 5282 5276 5270 5265 5260 5256 5251 5246 5242 5239 5238 5236 5235 5235 5235 5236 5236 5237
5436 5430 5424 5418 5412 5405 5398 5392 5385 5379 5374 5369 5363 5354 5344 5336 5329 5320 5311 5303 5299 5295 5288 5282 5277 5271 5265 5260 5255 5251 5247 5243 5239 5236 5234 5232 5231 5231 5231 5232 5232 5233 5233
5423 5416 5409 5404 5398 5392 5385 5377 5371 5365 5359 5353 5347 5340 5331 5322 5315 5309 5300 5293 5287 5282 5277 5271 5266 5260 5255 5250 5246 5242 5239 5237 5234 5232 5230 5228 5228 5227 5228 5228 5229 5230 5231
5410 5404 5396 5389 5384 5377 5370 5363 5356 5349 5343 5338 5333 5325 5314 5306 5301 5296 5289 5282 5276 5272 5266 5261 5256 5251 5246 5242 5238 5236 5233 5231 5229 5228 5226 5225 5224 5224 5225 5226 5227 5227 5228
5396 5390 5384 5377 5370 5363 5356 5349 5342 5335 5329 5323 5318 5311 5301 5293 5289 5284 5279 5273 5267 5262 5256 5251 5247 5243 5239 5235 5232 5229 5228 5227 5225 5223 5222 5221 5221 5221 5222 5223 5224 5225 5225
5382 5376 5370 5363 5356 5349 5343 5336 5329 5322 5315 5309 5302 5296 5290 5283 5278 5272 5267 5263 5258 5253 5248 5243 5240 5237 5233 5230 5227 5225 5223 5222 5221 5219 5218 5218 5218 5218 5219 5221 5222 5222 5223
5368 5362 5356 5350 5343 5336 5330 5323 5316 5308 5301 5295 5289 5284 5278 5272 5267 5262 5257 5253 5249 5246 5241 5237 5235 5232 5228 5225 5223 5222 5221 5219 5217 5216 5215 5215 5215 5216 5217 5218 5220 5221 5221
5355 5349 5342 5336 5329 5322 5316 5309 5302 5295 5289 5283 5278 5273 5268 5263 5258 5254 5250 5246 5243 5240 5237 5233 5230 5228 5226 5223 5221 5219 5218 5217 5215 5214 5214 5214 5214 5215 5215 5216 5218 5219 5220
5342 5335 5328 5321 5314 5307 5300 5295 5289 5283 5278 5273 5268 5263 5258 5254 5250 5246 5243 5239 5237 5235 5233 5230 5228 5226 5223 5222 5220 5218 5217 5216 5215 5215 5214 5215 5215 5216 5216 5217 5217 5218 5219